Regional Weather Roundup
Issued by NWS

Home | Current Version | Previous Version | Graphics & Text | Print | Product List | Glossary On
Versions: 1 2 3 4 5 6 7 8 9 10 11 12 13 14 15 16 17 18 19 20 21 22 23 24 25 26 27 28
000
ASUS45 KCYS 040010
RWRWY

WYOMING REGIONAL WEATHER ROUNDUP
NATIONAL WEATHER SERVICE CHEYENNE WY
500 PM MST SAT DEC 03 2016

NOTE:  "FAIR" INDICATES FEW OR NO CLOUDS BELOW 12,000 FEET
WITH NO SIGNIFICANT WEATHER AND/OR OBSTRUCTIONS TO VISIBILITY.

WYZ001-040100-
YELLOWSTONE NATIONAL PARK

CITY           SKY/WX    TMP DP  RH WIND       PRES   REMARKS
LK YELLOWSTONE   N/A     16  13  88 VRB7      30.06R WCI   6
6HR MIN TEMP:  15; 6HR MAX TEMP:  18; 6HR PCP:  0.02;

W YELLOWSTONE  NOT AVBL

$$
WYZ002>013-054>058-071-098>099-040100-
NORTHERN WYOMING

CITY           SKY/WX    TMP DP  RH WIND       PRES   REMARKS
JACKSON        CLOUDY    25  19  80 S14       30.12R WCI  13
CODY           FAIR      33  11  39 W22G28    29.97R WCI  21
GREYBULL       FAIR      33  15  47 S5        29.98R WCI  29
6HR MIN TEMP:  32; 6HR MAX TEMP:  40;

WORLAND        FAIR      28  18  66 SE8       29.97S WCI  20
6HR MIN TEMP:  28; 6HR MAX TEMP:  39;

SHERIDAN       MOCLDY    37  17  44 W12       29.92R WCI  29
6HR MIN TEMP:  36; 6HR MAX TEMP:  46; 6HR PCP: TRACE;

BUFFALO        CLOUDY    37  10  32 NW9       29.92S WCI  30
6HR MIN TEMP:  37; 6HR MAX TEMP:  43;

GILLETTE       CLOUDY    33  21  61 W8        29.92R WCI  26
6HR MIN TEMP:  32; 6HR MAX TEMP:  40;

HULETT         MOCLDY    34  25  69 SW10      29.91R WCI  26
NEWCASTLE      FAIR      30  23  74 N5        29.93S WCI  25

$$
WYZ014>020-022>026-101>103-040100-
CENTRAL WYOMING

CITY           SKY/WX    TMP DP  RH WIND       PRES   REMARKS
BIG PINEY      FAIR      19  10  68 N9        30.09R WCI   8
6HR MIN TEMP:  19; 6HR MAX TEMP:  31;

PINEDALE       FAIR      19  12  73 NW9       30.09S WCI   9
DUBOIS         CLOUDY    23  10  58 NW9       30.02R WCI  13
LANDER         FAIR      28  12  51 NW9       29.99R WCI  19
6HR MIN TEMP:  28; 6HR MAX TEMP:  36;

RIVERTON       FAIR      32   9  38 NW23      29.97S WCI  19
6HR MIN TEMP:  32; 6HR MAX TEMP:  39;

CASPER         CLOUDY    32  15  49 SW12      29.97S WCI  23
6HR MIN TEMP:  31; 6HR MAX TEMP:  38;

DOUGLAS        CLOUDY    32  15  49 W15       29.97R WCI  22
6HR MIN TEMP:  32; 6HR MAX TEMP:  41;


$$
WYZ021-027>030-104>119-040100-
SOUTHERN WYOMING

CITY           SKY/WX    TMP DP  RH WIND       PRES   REMARKS
EVANSTON       CLOUDY    23  14  68 SW12      30.18R WCI  12
6HR MIN TEMP:  22; 6HR MAX TEMP:  27; 6HR PCP: TRACE;

FORT BRIDGER   FLURRIES  25  18  74 W20G29    30.18R WCI  11
ROCK SPRINGS   FAIR      23  15  71 W23G33    30.08S WCI   7
6HR MIN TEMP:  23; 6HR MAX TEMP:  26;

DIXON          CLOUDY    26  15  64 SW9       30.13R WCI  17
RAWLINS        CLOUDY    24  16  71 SW23G30   30.03S WCI   9
6HR MIN TEMP:  21; 6HR MAX TEMP:  27; 6HR PCP: TRACE;

SARATOGA       CLOUDY    23  16  74 SW15G21   30.06R WCI  10
LARAMIE        FAIR      18   6  59 SW7       29.97R WCI   9
6HR MIN TEMP:  18; 6HR MAX TEMP:  30;

CHEYENNE       FAIR      29  10  45 N8G18     29.97R WCI  21
6HR MIN TEMP:  29; 6HR MAX TEMP:  36;

TORRINGTON     MOCLDY    34  12  40 W15       29.98R WCI  24
6HR MIN TEMP:  34; 6HR MAX TEMP:  43;

PINE BLUFFS    CLOUDY    32  12  43 NW23      29.98S WCI  19

$$




USA.gov is the U.S. government's official web portal to all federal, state and local government web resources and services.